<?xml version="1.0" encoding="UTF-8" standalone="no" ?>
<gpx xmlns="http://www.topografix.com/GPX/1/1" xmlns:xsi="http://www.w3.org/2001/XMLSchema-instance" xsi:schemaLocation="http://www.topografix.com/GPX/1/1 http://www.topografix.com/GPX/1/1/gpx.xsd" version="1.1" creator="VisuGPX - https://www.visugpx.com">
  <metadata>
    <name>Mont Macaron</name>
    <desc><![CDATA[rando vtt sur les hauteurs de Nice]]></desc>
  </metadata>
  <trk>
    <name><![CDATA[mont macaron  1]]></name>
    <trkseg>
      <trkpt lat="43.77402" lon="7.28046">
        <ele>279.7</ele>
        <time>2011-04-30T08:25:10Z</time>
      </trkpt>
      <trkpt lat="43.77375" lon="7.27995">
        <ele>270.7</ele>
        <time>2011-04-30T08:25:10Z</time>
      </trkpt>
      <trkpt lat="43.77342" lon="7.2799">
        <ele>258</ele>
        <time>2011-04-30T08:25:10Z</time>
      </trkpt>
      <trkpt lat="43.77341" lon="7.27997">
        <ele>257.9</ele>
        <time>2011-04-30T08:25:10Z</time>
      </trkpt>
      <trkpt lat="43.77349" lon="7.28009">
        <ele>260.6</ele>
        <time>2011-04-30T08:25:10Z</time>
      </trkpt>
      <trkpt lat="43.77365" lon="7.28062">
        <ele>264.6</ele>
        <time>2011-04-30T08:25:10Z</time>
      </trkpt>
      <trkpt lat="43.77384" lon="7.28109">
        <ele>270.4</ele>
        <time>2011-04-30T08:25:10Z</time>
      </trkpt>
      <trkpt lat="43.77392" lon="7.28156">
        <ele>272.4</ele>
        <time>2011-04-30T08:25:10Z</time>
      </trkpt>
      <trkpt lat="43.77373" lon="7.28223">
        <ele>266.1</ele>
        <time>2011-04-30T08:25:10Z</time>
      </trkpt>
      <trkpt lat="43.77361" lon="7.28217">
        <ele>260.9</ele>
        <time>2011-04-30T08:25:10Z</time>
      </trkpt>
      <trkpt lat="43.77368" lon="7.28174">
        <ele>262.5</ele>
        <time>2011-04-30T08:25:10Z</time>
      </trkpt>
      <trkpt lat="43.77369" lon="7.28137">
        <ele>263.4</ele>
        <time>2011-04-30T08:25:10Z</time>
      </trkpt>
      <trkpt lat="43.77344" lon="7.28062">
        <ele>256.3</ele>
        <time>2011-04-30T08:25:10Z</time>
      </trkpt>
      <trkpt lat="43.77327" lon="7.28056">
        <ele>252.9</ele>
        <time>2011-04-30T08:25:10Z</time>
      </trkpt>
      <trkpt lat="43.77312" lon="7.28075">
        <ele>254.8</ele>
        <time>2011-04-30T08:25:10Z</time>
      </trkpt>
      <trkpt lat="43.77285" lon="7.28086">
        <ele>260.4</ele>
        <time>2011-04-30T08:25:10Z</time>
      </trkpt>
      <trkpt lat="43.77249" lon="7.28117">
        <ele>272.9</ele>
        <time>2011-04-30T08:25:10Z</time>
      </trkpt>
      <trkpt lat="43.77214" lon="7.28153">
        <ele>280.3</ele>
        <time>2011-04-30T08:25:10Z</time>
      </trkpt>
      <trkpt lat="43.77207" lon="7.28173">
        <ele>284.4</ele>
        <time>2011-04-30T08:25:10Z</time>
      </trkpt>
      <trkpt lat="43.77192" lon="7.28212">
        <ele>289.8</ele>
        <time>2011-04-30T08:25:10Z</time>
      </trkpt>
      <trkpt lat="43.77168" lon="7.28261">
        <ele>302.9</ele>
        <time>2011-04-30T08:25:10Z</time>
      </trkpt>
      <trkpt lat="43.77157" lon="7.28269">
        <ele>302.1</ele>
        <time>2011-04-30T08:25:10Z</time>
      </trkpt>
      <trkpt lat="43.77125" lon="7.28258">
        <ele>296.5</ele>
        <time>2011-04-30T08:25:10Z</time>
      </trkpt>
      <trkpt lat="43.77088" lon="7.28303">
        <ele>300.3</ele>
        <time>2011-04-30T08:25:10Z</time>
      </trkpt>
      <trkpt lat="43.77049" lon="7.28323">
        <ele>297.1</ele>
        <time>2011-04-30T08:25:10Z</time>
      </trkpt>
      <trkpt lat="43.77018" lon="7.28303">
        <ele>285.7</ele>
        <time>2011-04-30T08:25:10Z</time>
      </trkpt>
      <trkpt lat="43.76997" lon="7.28225">
        <ele>264</ele>
        <time>2011-04-30T08:25:10Z</time>
      </trkpt>
      <trkpt lat="43.76977" lon="7.28212">
        <ele>264.7</ele>
        <time>2011-04-30T08:25:10Z</time>
      </trkpt>
      <trkpt lat="43.76948" lon="7.28242">
        <ele>277</ele>
        <time>2011-04-30T08:25:10Z</time>
      </trkpt>
      <trkpt lat="43.76895" lon="7.28249">
        <ele>286.9</ele>
        <time>2011-04-30T08:25:10Z</time>
      </trkpt>
      <trkpt lat="43.76842" lon="7.28255">
        <ele>294.8</ele>
        <time>2011-04-30T08:25:10Z</time>
      </trkpt>
      <trkpt lat="43.76781" lon="7.28267">
        <ele>302.6</ele>
        <time>2011-04-30T08:25:10Z</time>
      </trkpt>
      <trkpt lat="43.76766" lon="7.28279">
        <ele>307.8</ele>
        <time>2011-04-30T08:25:10Z</time>
      </trkpt>
      <trkpt lat="43.76756" lon="7.28306">
        <ele>318.4</ele>
        <time>2011-04-30T08:25:10Z</time>
      </trkpt>
      <trkpt lat="43.76748" lon="7.28395">
        <ele>342.2</ele>
        <time>2011-04-30T08:25:10Z</time>
      </trkpt>
      <trkpt lat="43.76711" lon="7.28432">
        <ele>338.1</ele>
        <time>2011-04-30T08:25:10Z</time>
      </trkpt>
      <trkpt lat="43.76679" lon="7.28464">
        <ele>334.8</ele>
        <time>2011-04-30T08:25:10Z</time>
      </trkpt>
      <trkpt lat="43.76662" lon="7.2846">
        <ele>329.2</ele>
        <time>2011-04-30T08:25:10Z</time>
      </trkpt>
      <trkpt lat="43.76651" lon="7.28438">
        <ele>322</ele>
        <time>2011-04-30T08:25:10Z</time>
      </trkpt>
      <trkpt lat="43.76654" lon="7.28387">
        <ele>311.2</ele>
        <time>2011-04-30T08:25:10Z</time>
      </trkpt>
      <trkpt lat="43.76628" lon="7.2833">
        <ele>295.8</ele>
        <time>2011-04-30T08:25:10Z</time>
      </trkpt>
      <trkpt lat="43.76605" lon="7.28328">
        <ele>292.9</ele>
        <time>2011-04-30T08:25:10Z</time>
      </trkpt>
      <trkpt lat="43.76586" lon="7.28337">
        <ele>292.8</ele>
        <time>2011-04-30T08:25:10Z</time>
      </trkpt>
      <trkpt lat="43.76555" lon="7.28359">
        <ele>300</ele>
        <time>2011-04-30T08:25:10Z</time>
      </trkpt>
      <trkpt lat="43.7652" lon="7.28414">
        <ele>318.6</ele>
        <time>2011-04-30T08:25:10Z</time>
      </trkpt>
      <trkpt lat="43.76452" lon="7.28404">
        <ele>319.4</ele>
        <time>2011-04-30T08:25:10Z</time>
      </trkpt>
      <trkpt lat="43.76394" lon="7.28426">
        <ele>326.2</ele>
        <time>2011-04-30T08:25:10Z</time>
      </trkpt>
      <trkpt lat="43.76366" lon="7.28458">
        <ele>337.8</ele>
        <time>2011-04-30T08:25:10Z</time>
      </trkpt>
      <trkpt lat="43.76335" lon="7.28521">
        <ele>360.8</ele>
        <time>2011-04-30T08:25:10Z</time>
      </trkpt>
      <trkpt lat="43.76324" lon="7.28523">
        <ele>359</ele>
        <time>2011-04-30T08:25:10Z</time>
      </trkpt>
      <trkpt lat="43.76313" lon="7.28514">
        <ele>351.7</ele>
        <time>2011-04-30T08:25:10Z</time>
      </trkpt>
      <trkpt lat="43.76263" lon="7.28488">
        <ele>326.5</ele>
        <time>2011-04-30T08:25:10Z</time>
      </trkpt>
      <trkpt lat="43.7622" lon="7.2845">
        <ele>315.7</ele>
        <time>2011-04-30T08:25:10Z</time>
      </trkpt>
      <trkpt lat="43.76174" lon="7.28433">
        <ele>319</ele>
        <time>2011-04-30T08:25:10Z</time>
      </trkpt>
      <trkpt lat="43.76109" lon="7.28424">
        <ele>326.1</ele>
        <time>2011-04-30T08:25:10Z</time>
      </trkpt>
      <trkpt lat="43.76078" lon="7.28407">
        <ele>322.5</ele>
        <time>2011-04-30T08:25:10Z</time>
      </trkpt>
      <trkpt lat="43.76047" lon="7.28399">
        <ele>323.6</ele>
        <time>2011-04-30T08:25:10Z</time>
      </trkpt>
      <trkpt lat="43.75986" lon="7.28389">
        <ele>329.7</ele>
        <time>2011-04-30T08:25:10Z</time>
      </trkpt>
      <trkpt lat="43.75945" lon="7.28363">
        <ele>326.1</ele>
        <time>2011-04-30T08:25:10Z</time>
      </trkpt>
      <trkpt lat="43.75895" lon="7.28371">
        <ele>336.6</ele>
        <time>2011-04-30T08:25:10Z</time>
      </trkpt>
      <trkpt lat="43.75838" lon="7.28376">
        <ele>344.6</ele>
        <time>2011-04-30T08:25:10Z</time>
      </trkpt>
      <trkpt lat="43.7579" lon="7.28385">
        <ele>348.7</ele>
        <time>2011-04-30T08:25:10Z</time>
      </trkpt>
      <trkpt lat="43.75775" lon="7.28403">
        <ele>352.2</ele>
        <time>2011-04-30T08:25:10Z</time>
      </trkpt>
      <trkpt lat="43.75735" lon="7.28481">
        <ele>361.9</ele>
        <time>2011-04-30T08:25:10Z</time>
      </trkpt>
      <trkpt lat="43.75733" lon="7.28513">
        <ele>363.5</ele>
        <time>2011-04-30T08:25:10Z</time>
      </trkpt>
      <trkpt lat="43.75747" lon="7.28542">
        <ele>364.7</ele>
        <time>2011-04-30T08:25:10Z</time>
      </trkpt>
      <trkpt lat="43.75803" lon="7.28591">
        <ele>376.2</ele>
        <time>2011-04-30T08:25:10Z</time>
      </trkpt>
      <trkpt lat="43.75836" lon="7.28618">
        <ele>385.8</ele>
        <time>2011-04-30T08:25:10Z</time>
      </trkpt>
      <trkpt lat="43.7584" lon="7.28638">
        <ele>387.9</ele>
        <time>2011-04-30T08:25:10Z</time>
      </trkpt>
      <trkpt lat="43.75817" lon="7.28673">
        <ele>384.1</ele>
        <time>2011-04-30T08:25:10Z</time>
      </trkpt>
      <trkpt lat="43.75764" lon="7.28753">
        <ele>387.8</ele>
        <time>2011-04-30T08:25:10Z</time>
      </trkpt>
      <trkpt lat="43.75712" lon="7.2882">
        <ele>389.7</ele>
        <time>2011-04-30T08:25:10Z</time>
      </trkpt>
      <trkpt lat="43.75692" lon="7.28869">
        <ele>390.1</ele>
        <time>2011-04-30T08:25:10Z</time>
      </trkpt>
      <trkpt lat="43.75723" lon="7.28921">
        <ele>405.6</ele>
        <time>2011-04-30T08:25:10Z</time>
      </trkpt>
      <trkpt lat="43.75765" lon="7.28974">
        <ele>411.1</ele>
        <time>2011-04-30T08:25:10Z</time>
      </trkpt>
      <trkpt lat="43.75803" lon="7.29025">
        <ele>416.3</ele>
        <time>2011-04-30T08:25:10Z</time>
      </trkpt>
      <trkpt lat="43.75812" lon="7.29041">
        <ele>417.5</ele>
        <time>2011-04-30T08:25:10Z</time>
      </trkpt>
      <trkpt lat="43.75805" lon="7.29056">
        <ele>414.2</ele>
        <time>2011-04-30T08:25:10Z</time>
      </trkpt>
      <trkpt lat="43.75776" lon="7.29066">
        <ele>406.5</ele>
        <time>2011-04-30T08:25:10Z</time>
      </trkpt>
      <trkpt lat="43.75708" lon="7.29098">
        <ele>397.4</ele>
        <time>2011-04-30T08:25:10Z</time>
      </trkpt>
      <trkpt lat="43.75662" lon="7.29126">
        <ele>397.7</ele>
        <time>2011-04-30T08:25:10Z</time>
      </trkpt>
      <trkpt lat="43.75654" lon="7.29175">
        <ele>408.2</ele>
        <time>2011-04-30T08:25:10Z</time>
      </trkpt>
      <trkpt lat="43.75664" lon="7.29239">
        <ele>419.4</ele>
        <time>2011-04-30T08:25:10Z</time>
      </trkpt>
      <trkpt lat="43.75693" lon="7.29313">
        <ele>432</ele>
        <time>2011-04-30T08:25:10Z</time>
      </trkpt>
      <trkpt lat="43.7569" lon="7.29432">
        <ele>435.8</ele>
        <time>2011-04-30T08:25:10Z</time>
      </trkpt>
      <trkpt lat="43.75697" lon="7.29497">
        <ele>428.1</ele>
        <time>2011-04-30T08:25:10Z</time>
      </trkpt>
      <trkpt lat="43.75705" lon="7.29499">
        <ele>428.8</ele>
        <time>2011-04-30T08:25:10Z</time>
      </trkpt>
      <trkpt lat="43.75707" lon="7.29437">
        <ele>438.7</ele>
        <time>2011-04-30T08:25:10Z</time>
      </trkpt>
      <trkpt lat="43.7573" lon="7.2937">
        <ele>445.6</ele>
        <time>2011-04-30T08:25:10Z</time>
      </trkpt>
      <trkpt lat="43.75769" lon="7.2926">
        <ele>443.9</ele>
        <time>2011-04-30T08:25:10Z</time>
      </trkpt>
      <trkpt lat="43.75807" lon="7.29228">
        <ele>445.2</ele>
        <time>2011-04-30T08:25:10Z</time>
      </trkpt>
      <trkpt lat="43.75856" lon="7.29193">
        <ele>444.2</ele>
        <time>2011-04-30T08:25:10Z</time>
      </trkpt>
      <trkpt lat="43.75923" lon="7.29183">
        <ele>449.3</ele>
        <time>2011-04-30T08:25:10Z</time>
      </trkpt>
      <trkpt lat="43.75993" lon="7.29174">
        <ele>460.6</ele>
        <time>2011-04-30T08:25:10Z</time>
      </trkpt>
      <trkpt lat="43.76063" lon="7.29171">
        <ele>476.6</ele>
        <time>2011-04-30T08:25:10Z</time>
      </trkpt>
      <trkpt lat="43.76076" lon="7.29154">
        <ele>482.5</ele>
        <time>2011-04-30T08:25:10Z</time>
      </trkpt>
      <trkpt lat="43.76081" lon="7.29126">
        <ele>488.7</ele>
        <time>2011-04-30T08:25:10Z</time>
      </trkpt>
      <trkpt lat="43.76029" lon="7.2902">
        <ele>497.1</ele>
        <time>2011-04-30T08:25:10Z</time>
      </trkpt>
      <trkpt lat="43.75986" lon="7.28932">
        <ele>493.1</ele>
        <time>2011-04-30T08:25:10Z</time>
      </trkpt>
      <trkpt lat="43.75995" lon="7.28903">
        <ele>494.7</ele>
        <time>2011-04-30T08:25:10Z</time>
      </trkpt>
      <trkpt lat="43.76002" lon="7.28903">
        <ele>496.7</ele>
        <time>2011-04-30T08:25:10Z</time>
      </trkpt>
      <trkpt lat="43.76001" lon="7.28944">
        <ele>497.9</ele>
        <time>2011-04-30T08:25:10Z</time>
      </trkpt>
      <trkpt lat="43.76045" lon="7.28987">
        <ele>507.5</ele>
        <time>2011-04-30T08:25:10Z</time>
      </trkpt>
      <trkpt lat="43.76102" lon="7.29034">
        <ele>511.1</ele>
        <time>2011-04-30T08:25:10Z</time>
      </trkpt>
      <trkpt lat="43.76159" lon="7.29081">
        <ele>510.1</ele>
        <time>2011-04-30T08:25:10Z</time>
      </trkpt>
      <trkpt lat="43.76207" lon="7.29134">
        <ele>509.8</ele>
        <time>2011-04-30T08:25:10Z</time>
      </trkpt>
      <trkpt lat="43.76247" lon="7.29127">
        <ele>510.8</ele>
        <time>2011-04-30T08:25:10Z</time>
      </trkpt>
      <trkpt lat="43.76254" lon="7.29157">
        <ele>517.7</ele>
        <time>2011-04-30T08:25:10Z</time>
      </trkpt>
      <trkpt lat="43.76258" lon="7.29288">
        <ele>542.9</ele>
        <time>2011-04-30T08:25:10Z</time>
      </trkpt>
      <trkpt lat="43.76286" lon="7.29378">
        <ele>556.7</ele>
        <time>2011-04-30T08:25:10Z</time>
      </trkpt>
      <trkpt lat="43.76296" lon="7.29496">
        <ele>560.7</ele>
        <time>2011-04-30T08:25:10Z</time>
      </trkpt>
      <trkpt lat="43.76306" lon="7.29531">
        <ele>562.4</ele>
        <time>2011-04-30T08:25:10Z</time>
      </trkpt>
      <trkpt lat="43.76335" lon="7.29576">
        <ele>572.1</ele>
        <time>2011-04-30T08:25:10Z</time>
      </trkpt>
      <trkpt lat="43.76348" lon="7.29619">
        <ele>573.7</ele>
        <time>2011-04-30T08:25:10Z</time>
      </trkpt>
      <trkpt lat="43.76352" lon="7.29682">
        <ele>569.3</ele>
        <time>2011-04-30T08:25:10Z</time>
      </trkpt>
      <trkpt lat="43.76348" lon="7.29726">
        <ele>563.4</ele>
        <time>2011-04-30T08:25:10Z</time>
      </trkpt>
      <trkpt lat="43.7635" lon="7.29763">
        <ele>558.2</ele>
        <time>2011-04-30T08:25:10Z</time>
      </trkpt>
      <trkpt lat="43.76362" lon="7.29736">
        <ele>565</ele>
        <time>2011-04-30T08:25:10Z</time>
      </trkpt>
      <trkpt lat="43.7638" lon="7.29661">
        <ele>580.6</ele>
        <time>2011-04-30T08:25:10Z</time>
      </trkpt>
      <trkpt lat="43.76383" lon="7.29586">
        <ele>588.7</ele>
        <time>2011-04-30T08:25:10Z</time>
      </trkpt>
      <trkpt lat="43.76376" lon="7.29494">
        <ele>588.6</ele>
        <time>2011-04-30T08:25:10Z</time>
      </trkpt>
      <trkpt lat="43.76381" lon="7.29383">
        <ele>580.8</ele>
        <time>2011-04-30T08:25:10Z</time>
      </trkpt>
      <trkpt lat="43.76389" lon="7.29327">
        <ele>572.1</ele>
        <time>2011-04-30T08:25:10Z</time>
      </trkpt>
      <trkpt lat="43.76393" lon="7.29356">
        <ele>577.7</ele>
        <time>2011-04-30T08:25:10Z</time>
      </trkpt>
      <trkpt lat="43.76409" lon="7.29439">
        <ele>592.5</ele>
        <time>2011-04-30T08:25:10Z</time>
      </trkpt>
      <trkpt lat="43.76424" lon="7.29511">
        <ele>600.7</ele>
        <time>2011-04-30T08:25:10Z</time>
      </trkpt>
      <trkpt lat="43.7644" lon="7.29576">
        <ele>603.6</ele>
        <time>2011-04-30T08:25:10Z</time>
      </trkpt>
      <trkpt lat="43.76465" lon="7.29615">
        <ele>604.2</ele>
        <time>2011-04-30T08:25:10Z</time>
      </trkpt>
      <trkpt lat="43.76506" lon="7.2965">
        <ele>607.3</ele>
        <time>2011-04-30T08:25:10Z</time>
      </trkpt>
      <trkpt lat="43.76549" lon="7.29656">
        <ele>614.4</ele>
        <time>2011-04-30T08:25:10Z</time>
      </trkpt>
      <trkpt lat="43.76584" lon="7.29689">
        <ele>615</ele>
        <time>2011-04-30T08:25:10Z</time>
      </trkpt>
      <trkpt lat="43.76627" lon="7.29699">
        <ele>612.7</ele>
        <time>2011-04-30T08:25:10Z</time>
      </trkpt>
      <trkpt lat="43.76648" lon="7.29753">
        <ele>596.9</ele>
        <time>2011-04-30T08:25:10Z</time>
      </trkpt>
      <trkpt lat="43.76657" lon="7.29749">
        <ele>597.4</ele>
        <time>2011-04-30T08:25:10Z</time>
      </trkpt>
      <trkpt lat="43.76639" lon="7.29678">
        <ele>618.2</ele>
        <time>2011-04-30T08:25:10Z</time>
      </trkpt>
      <trkpt lat="43.76618" lon="7.29646">
        <ele>623.7</ele>
        <time>2011-04-30T08:25:10Z</time>
      </trkpt>
      <trkpt lat="43.76608" lon="7.29619">
        <ele>627.2</ele>
        <time>2011-04-30T08:25:10Z</time>
      </trkpt>
      <trkpt lat="43.76628" lon="7.29569">
        <ele>634.1</ele>
        <time>2011-04-30T08:25:10Z</time>
      </trkpt>
      <trkpt lat="43.76671" lon="7.29518">
        <ele>636.7</ele>
        <time>2011-04-30T08:25:10Z</time>
      </trkpt>
      <trkpt lat="43.76719" lon="7.29485">
        <ele>626.7</ele>
        <time>2011-04-30T08:25:10Z</time>
      </trkpt>
      <trkpt lat="43.7676" lon="7.29462">
        <ele>613.7</ele>
        <time>2011-04-30T08:25:10Z</time>
      </trkpt>
      <trkpt lat="43.76765" lon="7.29472">
        <ele>614.9</ele>
        <time>2011-04-30T08:25:10Z</time>
      </trkpt>
      <trkpt lat="43.7672" lon="7.29518">
        <ele>632.9</ele>
        <time>2011-04-30T08:25:10Z</time>
      </trkpt>
      <trkpt lat="43.76706" lon="7.29559">
        <ele>637.2</ele>
        <time>2011-04-30T08:25:10Z</time>
      </trkpt>
      <trkpt lat="43.76704" lon="7.29581">
        <ele>639</ele>
        <time>2011-04-30T08:25:10Z</time>
      </trkpt>
      <trkpt lat="43.76719" lon="7.29603">
        <ele>633.5</ele>
        <time>2011-04-30T08:25:10Z</time>
      </trkpt>
      <trkpt lat="43.76752" lon="7.29629">
        <ele>624.1</ele>
        <time>2011-04-30T08:25:10Z</time>
      </trkpt>
      <trkpt lat="43.76808" lon="7.29623">
        <ele>609</ele>
        <time>2011-04-30T08:25:10Z</time>
      </trkpt>
      <trkpt lat="43.76854" lon="7.29628">
        <ele>588.9</ele>
        <time>2011-04-30T08:25:10Z</time>
      </trkpt>
      <trkpt lat="43.76878" lon="7.29648">
        <ele>572</ele>
        <time>2011-04-30T08:25:10Z</time>
      </trkpt>
      <trkpt lat="43.76903" lon="7.29657">
        <ele>556.8</ele>
        <time>2011-04-30T08:25:10Z</time>
      </trkpt>
      <trkpt lat="43.76919" lon="7.29674">
        <ele>546</ele>
        <time>2011-04-30T08:25:10Z</time>
      </trkpt>
      <trkpt lat="43.76943" lon="7.29701">
        <ele>533.8</ele>
        <time>2011-04-30T08:25:10Z</time>
      </trkpt>
      <trkpt lat="43.76972" lon="7.29693">
        <ele>524.7</ele>
        <time>2011-04-30T08:25:10Z</time>
      </trkpt>
      <trkpt lat="43.76987" lon="7.29706">
        <ele>519.1</ele>
        <time>2011-04-30T08:25:10Z</time>
      </trkpt>
      <trkpt lat="43.77005" lon="7.29734">
        <ele>513.2</ele>
        <time>2011-04-30T08:25:10Z</time>
      </trkpt>
      <trkpt lat="43.77035" lon="7.29735">
        <ele>502.3</ele>
        <time>2011-04-30T08:25:10Z</time>
      </trkpt>
      <trkpt lat="43.77054" lon="7.29761">
        <ele>495.6</ele>
        <time>2011-04-30T08:25:10Z</time>
      </trkpt>
      <trkpt lat="43.77063" lon="7.29778">
        <ele>492</ele>
        <time>2011-04-30T08:25:10Z</time>
      </trkpt>
      <trkpt lat="43.7709" lon="7.29791">
        <ele>483</ele>
        <time>2011-04-30T08:25:10Z</time>
      </trkpt>
      <trkpt lat="43.77119" lon="7.29803">
        <ele>474.9</ele>
        <time>2011-04-30T08:25:10Z</time>
      </trkpt>
      <trkpt lat="43.77121" lon="7.29825">
        <ele>474.8</ele>
        <time>2011-04-30T08:25:10Z</time>
      </trkpt>
      <trkpt lat="43.77134" lon="7.29856">
        <ele>473.2</ele>
        <time>2011-04-30T08:25:10Z</time>
      </trkpt>
      <trkpt lat="43.77131" lon="7.29883">
        <ele>475.5</ele>
        <time>2011-04-30T08:25:10Z</time>
      </trkpt>
      <trkpt lat="43.77139" lon="7.29928">
        <ele>477.7</ele>
        <time>2011-04-30T08:25:10Z</time>
      </trkpt>
      <trkpt lat="43.77158" lon="7.29948">
        <ele>479.1</ele>
        <time>2011-04-30T08:25:10Z</time>
      </trkpt>
      <trkpt lat="43.77154" lon="7.29971">
        <ele>481.3</ele>
        <time>2011-04-30T08:25:10Z</time>
      </trkpt>
      <trkpt lat="43.77148" lon="7.29991">
        <ele>482.7</ele>
        <time>2011-04-30T08:25:10Z</time>
      </trkpt>
      <trkpt lat="43.7713" lon="7.29973">
        <ele>479.9</ele>
        <time>2011-04-30T08:25:10Z</time>
      </trkpt>
      <trkpt lat="43.77085" lon="7.29988">
        <ele>476</ele>
        <time>2011-04-30T08:25:10Z</time>
      </trkpt>
      <trkpt lat="43.77052" lon="7.30013">
        <ele>466.5</ele>
        <time>2011-04-30T08:25:10Z</time>
      </trkpt>
      <trkpt lat="43.77014" lon="7.3001">
        <ele>458.7</ele>
        <time>2011-04-30T08:25:10Z</time>
      </trkpt>
      <trkpt lat="43.76998" lon="7.29982">
        <ele>463.8</ele>
        <time>2011-04-30T08:25:10Z</time>
      </trkpt>
      <trkpt lat="43.76981" lon="7.29962">
        <ele>467.5</ele>
        <time>2011-04-30T08:25:10Z</time>
      </trkpt>
      <trkpt lat="43.76961" lon="7.29978">
        <ele>458.2</ele>
        <time>2011-04-30T08:25:10Z</time>
      </trkpt>
      <trkpt lat="43.76956" lon="7.30022">
        <ele>443.2</ele>
        <time>2011-04-30T08:25:10Z</time>
      </trkpt>
      <trkpt lat="43.76973" lon="7.30086">
        <ele>429</ele>
        <time>2011-04-30T08:25:10Z</time>
      </trkpt>
      <trkpt lat="43.76954" lon="7.3014">
        <ele>413</ele>
        <time>2011-04-30T08:25:10Z</time>
      </trkpt>
      <trkpt lat="43.76934" lon="7.30194">
        <ele>398.8</ele>
        <time>2011-04-30T08:25:10Z</time>
      </trkpt>
      <trkpt lat="43.76896" lon="7.30206">
        <ele>398.5</ele>
        <time>2011-04-30T08:25:10Z</time>
      </trkpt>
      <trkpt lat="43.76861" lon="7.30222">
        <ele>403.2</ele>
        <time>2011-04-30T08:25:10Z</time>
      </trkpt>
      <trkpt lat="43.76839" lon="7.30199">
        <ele>411</ele>
        <time>2011-04-30T08:25:10Z</time>
      </trkpt>
      <trkpt lat="43.76824" lon="7.30207">
        <ele>410.8</ele>
        <time>2011-04-30T08:25:10Z</time>
      </trkpt>
      <trkpt lat="43.76807" lon="7.30188">
        <ele>412.9</ele>
        <time>2011-04-30T08:25:10Z</time>
      </trkpt>
      <trkpt lat="43.76793" lon="7.30206">
        <ele>409.1</ele>
        <time>2011-04-30T08:25:10Z</time>
      </trkpt>
      <trkpt lat="43.76766" lon="7.30199">
        <ele>409.2</ele>
        <time>2011-04-30T08:25:10Z</time>
      </trkpt>
      <trkpt lat="43.76739" lon="7.30256">
        <ele>391.9</ele>
        <time>2011-04-30T08:25:10Z</time>
      </trkpt>
      <trkpt lat="43.76702" lon="7.30281">
        <ele>379.7</ele>
        <time>2011-04-30T08:25:10Z</time>
      </trkpt>
      <trkpt lat="43.76683" lon="7.30319">
        <ele>365.4</ele>
        <time>2011-04-30T08:25:10Z</time>
      </trkpt>
      <trkpt lat="43.7666" lon="7.3036">
        <ele>352</ele>
        <time>2011-04-30T08:25:10Z</time>
      </trkpt>
      <trkpt lat="43.76637" lon="7.30401">
        <ele>346.4</ele>
        <time>2011-04-30T08:25:10Z</time>
      </trkpt>
      <trkpt lat="43.76617" lon="7.30456">
        <ele>342.1</ele>
        <time>2011-04-30T08:25:10Z</time>
      </trkpt>
      <trkpt lat="43.76606" lon="7.30516">
        <ele>337.1</ele>
        <time>2011-04-30T08:25:10Z</time>
      </trkpt>
      <trkpt lat="43.76588" lon="7.30576">
        <ele>338.4</ele>
        <time>2011-04-30T08:25:10Z</time>
      </trkpt>
      <trkpt lat="43.76575" lon="7.30636">
        <ele>333.9</ele>
        <time>2011-04-30T08:25:10Z</time>
      </trkpt>
      <trkpt lat="43.76547" lon="7.30693">
        <ele>330.5</ele>
        <time>2011-04-30T08:25:10Z</time>
      </trkpt>
      <trkpt lat="43.76513" lon="7.30749">
        <ele>323.7</ele>
        <time>2011-04-30T08:25:10Z</time>
      </trkpt>
      <trkpt lat="43.76464" lon="7.30804">
        <ele>319.9</ele>
        <time>2011-04-30T08:25:10Z</time>
      </trkpt>
      <trkpt lat="43.76414" lon="7.30859">
        <ele>314.5</ele>
        <time>2011-04-30T08:25:10Z</time>
      </trkpt>
      <trkpt lat="43.76377" lon="7.30914">
        <ele>300.7</ele>
        <time>2011-04-30T08:25:10Z</time>
      </trkpt>
      <trkpt lat="43.76364" lon="7.31013">
        <ele>273.3</ele>
        <time>2011-04-30T08:25:10Z</time>
      </trkpt>
      <trkpt lat="43.76327" lon="7.31053">
        <ele>279.2</ele>
        <time>2011-04-30T08:25:10Z</time>
      </trkpt>
      <trkpt lat="43.76287" lon="7.31148">
        <ele>264</ele>
        <time>2011-04-30T08:25:10Z</time>
      </trkpt>
      <trkpt lat="43.76229" lon="7.31231">
        <ele>252.3</ele>
        <time>2011-04-30T08:25:10Z</time>
      </trkpt>
      <trkpt lat="43.76206" lon="7.31285">
        <ele>243.4</ele>
        <time>2011-04-30T08:25:10Z</time>
      </trkpt>
      <trkpt lat="43.76253" lon="7.31345">
        <ele>216.7</ele>
        <time>2011-04-30T08:25:10Z</time>
      </trkpt>
      <trkpt lat="43.76242" lon="7.31463">
        <ele>179.9</ele>
        <time>2011-04-30T08:25:10Z</time>
      </trkpt>
      <trkpt lat="43.76258" lon="7.31523">
        <ele>152.3</ele>
        <time>2011-04-30T08:25:10Z</time>
      </trkpt>
      <trkpt lat="43.76282" lon="7.31528">
        <ele>144.8</ele>
        <time>2011-04-30T08:25:10Z</time>
      </trkpt>
      <trkpt lat="43.76262" lon="7.31545">
        <ele>143.7</ele>
        <time>2011-04-30T08:25:10Z</time>
      </trkpt>
      <trkpt lat="43.76291" lon="7.31545">
        <ele>139.3</ele>
        <time>2011-04-30T08:25:10Z</time>
      </trkpt>
      <trkpt lat="43.76292" lon="7.31562">
        <ele>135.9</ele>
        <time>2011-04-30T08:25:10Z</time>
      </trkpt>
      <trkpt lat="43.76263" lon="7.3157">
        <ele>134.7</ele>
        <time>2011-04-30T08:25:10Z</time>
      </trkpt>
      <trkpt lat="43.76234" lon="7.31614">
        <ele>128.7</ele>
        <time>2011-04-30T08:25:10Z</time>
      </trkpt>
      <trkpt lat="43.76234" lon="7.31652">
        <ele>124.7</ele>
        <time>2011-04-30T08:25:10Z</time>
      </trkpt>
      <trkpt lat="43.76251" lon="7.31692">
        <ele>127.1</ele>
        <time>2011-04-30T08:25:10Z</time>
      </trkpt>
      <trkpt lat="43.76254" lon="7.31736">
        <ele>131.6</ele>
        <time>2011-04-30T08:25:10Z</time>
      </trkpt>
      <trkpt lat="43.76264" lon="7.31753">
        <ele>139</ele>
        <time>2011-04-30T08:25:10Z</time>
      </trkpt>
      <trkpt lat="43.76245" lon="7.31779">
        <ele>135.6</ele>
        <time>2011-04-30T08:25:10Z</time>
      </trkpt>
      <trkpt lat="43.76272" lon="7.31815">
        <ele>159.5</ele>
        <time>2011-04-30T08:25:10Z</time>
      </trkpt>
      <trkpt lat="43.76271" lon="7.31906">
        <ele>169.1</ele>
        <time>2011-04-30T08:25:10Z</time>
      </trkpt>
      <trkpt lat="43.763" lon="7.31957">
        <ele>173.1</ele>
        <time>2011-04-30T08:25:10Z</time>
      </trkpt>
      <trkpt lat="43.76316" lon="7.31968">
        <ele>177.7</ele>
        <time>2011-04-30T08:25:10Z</time>
      </trkpt>
      <trkpt lat="43.76352" lon="7.31999">
        <ele>181.3</ele>
        <time>2011-04-30T08:25:10Z</time>
      </trkpt>
      <trkpt lat="43.76381" lon="7.32025">
        <ele>177.8</ele>
        <time>2011-04-30T08:25:10Z</time>
      </trkpt>
      <trkpt lat="43.76433" lon="7.32021">
        <ele>196.5</ele>
        <time>2011-04-30T08:25:10Z</time>
      </trkpt>
      <trkpt lat="43.76487" lon="7.32028">
        <ele>205.6</ele>
        <time>2011-04-30T08:25:10Z</time>
      </trkpt>
      <trkpt lat="43.76569" lon="7.32082">
        <ele>189.7</ele>
        <time>2011-04-30T08:25:10Z</time>
      </trkpt>
      <trkpt lat="43.76657" lon="7.32093">
        <ele>198.1</ele>
        <time>2011-04-30T08:25:10Z</time>
      </trkpt>
      <trkpt lat="43.76698" lon="7.32113">
        <ele>198.4</ele>
        <time>2011-04-30T08:25:10Z</time>
      </trkpt>
      <trkpt lat="43.76731" lon="7.3212">
        <ele>201.3</ele>
        <time>2011-04-30T08:25:10Z</time>
      </trkpt>
      <trkpt lat="43.76766" lon="7.32148">
        <ele>199.1</ele>
        <time>2011-04-30T08:25:10Z</time>
      </trkpt>
      <trkpt lat="43.76808" lon="7.32165">
        <ele>199.3</ele>
        <time>2011-04-30T08:25:10Z</time>
      </trkpt>
      <trkpt lat="43.7685" lon="7.32187">
        <ele>200.7</ele>
        <time>2011-04-30T08:25:10Z</time>
      </trkpt>
      <trkpt lat="43.76822" lon="7.32143">
        <ele>209.8</ele>
        <time>2011-04-30T08:25:10Z</time>
      </trkpt>
      <trkpt lat="43.76737" lon="7.32082">
        <ele>213.2</ele>
        <time>2011-04-30T08:25:10Z</time>
      </trkpt>
      <trkpt lat="43.76654" lon="7.32038">
        <ele>223.5</ele>
        <time>2011-04-30T08:25:10Z</time>
      </trkpt>
      <trkpt lat="43.76568" lon="7.3201">
        <ele>225.8</ele>
        <time>2011-04-30T08:25:10Z</time>
      </trkpt>
      <trkpt lat="43.76524" lon="7.31972">
        <ele>237.9</ele>
        <time>2011-04-30T08:25:10Z</time>
      </trkpt>
      <trkpt lat="43.76466" lon="7.31955">
        <ele>234.6</ele>
        <time>2011-04-30T08:25:10Z</time>
      </trkpt>
      <trkpt lat="43.76441" lon="7.31899">
        <ele>249.5</ele>
        <time>2011-04-30T08:25:10Z</time>
      </trkpt>
      <trkpt lat="43.76441" lon="7.31851">
        <ele>260.5</ele>
        <time>2011-04-30T08:25:10Z</time>
      </trkpt>
      <trkpt lat="43.76492" lon="7.31764">
        <ele>281.2</ele>
        <time>2011-04-30T08:25:10Z</time>
      </trkpt>
      <trkpt lat="43.76537" lon="7.31673">
        <ele>287.6</ele>
        <time>2011-04-30T08:25:10Z</time>
      </trkpt>
      <trkpt lat="43.76549" lon="7.31622">
        <ele>280</ele>
        <time>2011-04-30T08:25:10Z</time>
      </trkpt>
      <trkpt lat="43.76563" lon="7.31617">
        <ele>287.3</ele>
        <time>2011-04-30T08:25:10Z</time>
      </trkpt>
      <trkpt lat="43.76562" lon="7.31639">
        <ele>293.1</ele>
        <time>2011-04-30T08:25:10Z</time>
      </trkpt>
      <trkpt lat="43.76545" lon="7.31694">
        <ele>296.4</ele>
        <time>2011-04-30T08:25:10Z</time>
      </trkpt>
      <trkpt lat="43.76508" lon="7.31777">
        <ele>290</ele>
        <time>2011-04-30T08:25:10Z</time>
      </trkpt>
      <trkpt lat="43.76489" lon="7.31839">
        <ele>283.6</ele>
        <time>2011-04-30T08:25:10Z</time>
      </trkpt>
      <trkpt lat="43.76491" lon="7.31886">
        <ele>268.2</ele>
        <time>2011-04-30T08:25:10Z</time>
      </trkpt>
      <trkpt lat="43.76517" lon="7.31913">
        <ele>263.9</ele>
        <time>2011-04-30T08:25:10Z</time>
      </trkpt>
      <trkpt lat="43.76602" lon="7.31918">
        <ele>273.1</ele>
        <time>2011-04-30T08:25:10Z</time>
      </trkpt>
      <trkpt lat="43.76686" lon="7.31909">
        <ele>284.1</ele>
        <time>2011-04-30T08:25:10Z</time>
      </trkpt>
      <trkpt lat="43.76811" lon="7.31925">
        <ele>294.2</ele>
        <time>2011-04-30T08:25:10Z</time>
      </trkpt>
      <trkpt lat="43.76914" lon="7.31953">
        <ele>297.7</ele>
        <time>2011-04-30T08:25:10Z</time>
      </trkpt>
      <trkpt lat="43.77051" lon="7.31984">
        <ele>292.4</ele>
        <time>2011-04-30T08:25:10Z</time>
      </trkpt>
      <trkpt lat="43.77118" lon="7.31973">
        <ele>300.1</ele>
        <time>2011-04-30T08:25:10Z</time>
      </trkpt>
      <trkpt lat="43.77189" lon="7.31936">
        <ele>321.2</ele>
        <time>2011-04-30T08:25:10Z</time>
      </trkpt>
      <trkpt lat="43.77219" lon="7.31925">
        <ele>332.1</ele>
        <time>2011-04-30T08:25:10Z</time>
      </trkpt>
      <trkpt lat="43.77231" lon="7.31901">
        <ele>341.7</ele>
        <time>2011-04-30T08:25:10Z</time>
      </trkpt>
      <trkpt lat="43.7726" lon="7.31903">
        <ele>351</ele>
        <time>2011-04-30T08:25:10Z</time>
      </trkpt>
      <trkpt lat="43.77355" lon="7.31832">
        <ele>418.5</ele>
        <time>2011-04-30T08:25:10Z</time>
      </trkpt>
      <trkpt lat="43.77373" lon="7.31909">
        <ele>414.8</ele>
        <time>2011-04-30T08:25:10Z</time>
      </trkpt>
      <trkpt lat="43.77375" lon="7.31957">
        <ele>404.6</ele>
        <time>2011-04-30T08:25:10Z</time>
      </trkpt>
      <trkpt lat="43.77387" lon="7.31981">
        <ele>406.5</ele>
        <time>2011-04-30T08:25:10Z</time>
      </trkpt>
      <trkpt lat="43.7743" lon="7.32009">
        <ele>428.2</ele>
        <time>2011-04-30T08:25:10Z</time>
      </trkpt>
      <trkpt lat="43.77445" lon="7.3213">
        <ele>425.8</ele>
        <time>2011-04-30T08:25:10Z</time>
      </trkpt>
      <trkpt lat="43.77409" lon="7.32248">
        <ele>414.8</ele>
        <time>2011-04-30T08:25:10Z</time>
      </trkpt>
      <trkpt lat="43.77389" lon="7.32371">
        <ele>424.9</ele>
        <time>2011-04-30T08:25:10Z</time>
      </trkpt>
      <trkpt lat="43.77403" lon="7.32487">
        <ele>424.5</ele>
        <time>2011-04-30T08:25:10Z</time>
      </trkpt>
      <trkpt lat="43.77409" lon="7.32567">
        <ele>400.6</ele>
        <time>2011-04-30T08:25:10Z</time>
      </trkpt>
      <trkpt lat="43.77531" lon="7.32553">
        <ele>403.9</ele>
        <time>2011-04-30T08:25:10Z</time>
      </trkpt>
      <trkpt lat="43.77656" lon="7.32549">
        <ele>394.9</ele>
        <time>2011-04-30T08:25:10Z</time>
      </trkpt>
      <trkpt lat="43.77741" lon="7.32515">
        <ele>353.1</ele>
        <time>2011-04-30T08:25:10Z</time>
      </trkpt>
      <trkpt lat="43.7777" lon="7.32508">
        <ele>336.3</ele>
        <time>2011-04-30T08:25:10Z</time>
      </trkpt>
      <trkpt lat="43.7778" lon="7.32406">
        <ele>349.3</ele>
        <time>2011-04-30T08:25:10Z</time>
      </trkpt>
      <trkpt lat="43.77787" lon="7.32295">
        <ele>370.1</ele>
        <time>2011-04-30T08:25:10Z</time>
      </trkpt>
      <trkpt lat="43.77822" lon="7.3221">
        <ele>374.9</ele>
        <time>2011-04-30T08:25:10Z</time>
      </trkpt>
      <trkpt lat="43.77813" lon="7.32118">
        <ele>404.1</ele>
        <time>2011-04-30T08:25:10Z</time>
      </trkpt>
      <trkpt lat="43.77835" lon="7.32063">
        <ele>413</ele>
        <time>2011-04-30T08:25:10Z</time>
      </trkpt>
      <trkpt lat="43.77862" lon="7.3204">
        <ele>412.6</ele>
        <time>2011-04-30T08:25:10Z</time>
      </trkpt>
      <trkpt lat="43.77869" lon="7.32004">
        <ele>419.9</ele>
        <time>2011-04-30T08:25:10Z</time>
      </trkpt>
      <trkpt lat="43.77895" lon="7.31957">
        <ele>421.6</ele>
        <time>2011-04-30T08:25:10Z</time>
      </trkpt>
      <trkpt lat="43.77904" lon="7.31925">
        <ele>424.3</ele>
        <time>2011-04-30T08:25:10Z</time>
      </trkpt>
      <trkpt lat="43.779" lon="7.31836">
        <ele>441.2</ele>
        <time>2011-04-30T08:25:10Z</time>
      </trkpt>
      <trkpt lat="43.77896" lon="7.31745">
        <ele>468.9</ele>
        <time>2011-04-30T08:25:10Z</time>
      </trkpt>
      <trkpt lat="43.77911" lon="7.31683">
        <ele>493.7</ele>
        <time>2011-04-30T08:25:10Z</time>
      </trkpt>
      <trkpt lat="43.77899" lon="7.3168">
        <ele>492.9</ele>
        <time>2011-04-30T08:25:10Z</time>
      </trkpt>
      <trkpt lat="43.77866" lon="7.31726">
        <ele>473.1</ele>
        <time>2011-04-30T08:25:10Z</time>
      </trkpt>
      <trkpt lat="43.77798" lon="7.31756">
        <ele>474.6</ele>
        <time>2011-04-30T08:25:10Z</time>
      </trkpt>
      <trkpt lat="43.77734" lon="7.31806">
        <ele>484.1</ele>
        <time>2011-04-30T08:25:10Z</time>
      </trkpt>
      <trkpt lat="43.77717" lon="7.31812">
        <ele>486.5</ele>
        <time>2011-04-30T08:25:10Z</time>
      </trkpt>
      <trkpt lat="43.77756" lon="7.31743">
        <ele>490.4</ele>
        <time>2011-04-30T08:25:10Z</time>
      </trkpt>
      <trkpt lat="43.77815" lon="7.31689">
        <ele>483.7</ele>
        <time>2011-04-30T08:25:10Z</time>
      </trkpt>
      <trkpt lat="43.77835" lon="7.31625">
        <ele>495.2</ele>
        <time>2011-04-30T08:25:10Z</time>
      </trkpt>
      <trkpt lat="43.77838" lon="7.31487">
        <ele>536.2</ele>
        <time>2011-04-30T08:25:10Z</time>
      </trkpt>
      <trkpt lat="43.77817" lon="7.31528">
        <ele>522.3</ele>
        <time>2011-04-30T08:25:10Z</time>
      </trkpt>
      <trkpt lat="43.77763" lon="7.31612">
        <ele>508.5</ele>
        <time>2011-04-30T08:25:10Z</time>
      </trkpt>
      <trkpt lat="43.77658" lon="7.31695">
        <ele>518.6</ele>
        <time>2011-04-30T08:25:10Z</time>
      </trkpt>
      <trkpt lat="43.77694" lon="7.31605">
        <ele>525.6</ele>
        <time>2011-04-30T08:25:10Z</time>
      </trkpt>
      <trkpt lat="43.77722" lon="7.31512">
        <ele>535</ele>
        <time>2011-04-30T08:25:10Z</time>
      </trkpt>
      <trkpt lat="43.77743" lon="7.31479">
        <ele>532.3</ele>
        <time>2011-04-30T08:25:10Z</time>
      </trkpt>
      <trkpt lat="43.77727" lon="7.31481">
        <ele>538.4</ele>
        <time>2011-04-30T08:25:10Z</time>
      </trkpt>
      <trkpt lat="43.77632" lon="7.31589">
        <ele>545.6</ele>
        <time>2011-04-30T08:25:10Z</time>
      </trkpt>
      <trkpt lat="43.77605" lon="7.31597">
        <ele>551.9</ele>
        <time>2011-04-30T08:25:10Z</time>
      </trkpt>
      <trkpt lat="43.77564" lon="7.31498">
        <ele>586.8</ele>
        <time>2011-04-30T08:25:10Z</time>
      </trkpt>
      <trkpt lat="43.77554" lon="7.31434">
        <ele>589</ele>
        <time>2011-04-30T08:25:10Z</time>
      </trkpt>
      <trkpt lat="43.77626" lon="7.31383">
        <ele>580.2</ele>
        <time>2011-04-30T08:25:10Z</time>
      </trkpt>
      <trkpt lat="43.77678" lon="7.31332">
        <ele>573.6</ele>
        <time>2011-04-30T08:25:10Z</time>
      </trkpt>
      <trkpt lat="43.777" lon="7.31283">
        <ele>577.2</ele>
        <time>2011-04-30T08:25:10Z</time>
      </trkpt>
      <trkpt lat="43.77699" lon="7.31206">
        <ele>595.3</ele>
        <time>2011-04-30T08:25:10Z</time>
      </trkpt>
      <trkpt lat="43.77671" lon="7.31121">
        <ele>621.7</ele>
        <time>2011-04-30T08:25:10Z</time>
      </trkpt>
      <trkpt lat="43.77672" lon="7.31008">
        <ele>645.2</ele>
        <time>2011-04-30T08:25:10Z</time>
      </trkpt>
      <trkpt lat="43.77684" lon="7.30915">
        <ele>658.7</ele>
        <time>2011-04-30T08:25:10Z</time>
      </trkpt>
      <trkpt lat="43.77693" lon="7.30924">
        <ele>660.2</ele>
        <time>2011-04-30T08:25:10Z</time>
      </trkpt>
      <trkpt lat="43.77687" lon="7.31024">
        <ele>643.2</ele>
        <time>2011-04-30T08:25:10Z</time>
      </trkpt>
      <trkpt lat="43.77714" lon="7.31118">
        <ele>618.5</ele>
        <time>2011-04-30T08:25:10Z</time>
      </trkpt>
      <trkpt lat="43.77745" lon="7.31137">
        <ele>609.5</ele>
        <time>2011-04-30T08:25:10Z</time>
      </trkpt>
      <trkpt lat="43.77788" lon="7.31122">
        <ele>613.1</ele>
        <time>2011-04-30T08:25:10Z</time>
      </trkpt>
      <trkpt lat="43.77859" lon="7.31038">
        <ele>637.4</ele>
        <time>2011-04-30T08:25:10Z</time>
      </trkpt>
      <trkpt lat="43.77903" lon="7.31003">
        <ele>650.4</ele>
        <time>2011-04-30T08:25:10Z</time>
      </trkpt>
      <trkpt lat="43.77992" lon="7.31037">
        <ele>617.7</ele>
        <time>2011-04-30T08:25:10Z</time>
      </trkpt>
      <trkpt lat="43.78005" lon="7.31029">
        <ele>615.1</ele>
        <time>2011-04-30T08:25:10Z</time>
      </trkpt>
      <trkpt lat="43.78025" lon="7.30964">
        <ele>627.3</ele>
        <time>2011-04-30T08:25:10Z</time>
      </trkpt>
      <trkpt lat="43.78063" lon="7.3088">
        <ele>652</ele>
        <time>2011-04-30T08:25:10Z</time>
      </trkpt>
      <trkpt lat="43.78053" lon="7.30877">
        <ele>653.4</ele>
        <time>2011-04-30T08:25:10Z</time>
      </trkpt>
      <trkpt lat="43.78014" lon="7.3095">
        <ele>631.5</ele>
        <time>2011-04-30T08:25:10Z</time>
      </trkpt>
      <trkpt lat="43.77995" lon="7.30964">
        <ele>631.2</ele>
        <time>2011-04-30T08:25:10Z</time>
      </trkpt>
      <trkpt lat="43.7794" lon="7.30932">
        <ele>659.8</ele>
        <time>2011-04-30T08:25:10Z</time>
      </trkpt>
      <trkpt lat="43.77877" lon="7.30932">
        <ele>671.1</ele>
        <time>2011-04-30T08:25:10Z</time>
      </trkpt>
      <trkpt lat="43.77826" lon="7.30943">
        <ele>669.1</ele>
        <time>2011-04-30T08:25:10Z</time>
      </trkpt>
      <trkpt lat="43.77804" lon="7.30917">
        <ele>679</ele>
        <time>2011-04-30T08:25:10Z</time>
      </trkpt>
      <trkpt lat="43.77801" lon="7.30767">
        <ele>706</ele>
        <time>2011-04-30T08:25:10Z</time>
      </trkpt>
      <trkpt lat="43.77759" lon="7.30736">
        <ele>704.6</ele>
        <time>2011-04-30T08:25:10Z</time>
      </trkpt>
      <trkpt lat="43.7773" lon="7.30695">
        <ele>705</ele>
        <time>2011-04-30T08:25:10Z</time>
      </trkpt>
      <trkpt lat="43.7773" lon="7.30665">
        <ele>708</ele>
        <time>2011-04-30T08:25:10Z</time>
      </trkpt>
      <trkpt lat="43.77752" lon="7.30704">
        <ele>707.2</ele>
        <time>2011-04-30T08:25:10Z</time>
      </trkpt>
      <trkpt lat="43.77843" lon="7.30721">
        <ele>714.2</ele>
        <time>2011-04-30T08:25:10Z</time>
      </trkpt>
      <trkpt lat="43.77867" lon="7.30764">
        <ele>710.1</ele>
        <time>2011-04-30T08:25:10Z</time>
      </trkpt>
      <trkpt lat="43.77947" lon="7.30771">
        <ele>702.6</ele>
        <time>2011-04-30T08:25:10Z</time>
      </trkpt>
      <trkpt lat="43.7797" lon="7.30747">
        <ele>704.3</ele>
        <time>2011-04-30T08:25:10Z</time>
      </trkpt>
      <trkpt lat="43.78037" lon="7.30681">
        <ele>717.8</ele>
        <time>2011-04-30T08:25:10Z</time>
      </trkpt>
      <trkpt lat="43.78076" lon="7.30641">
        <ele>729</ele>
        <time>2011-04-30T08:25:10Z</time>
      </trkpt>
      <trkpt lat="43.78114" lon="7.30628">
        <ele>737.4</ele>
        <time>2011-04-30T08:25:10Z</time>
      </trkpt>
      <trkpt lat="43.78041" lon="7.30603">
        <ele>734.2</ele>
        <time>2011-04-30T08:25:10Z</time>
      </trkpt>
      <trkpt lat="43.7798" lon="7.30535">
        <ele>745.9</ele>
        <time>2011-04-30T08:25:10Z</time>
      </trkpt>
      <trkpt lat="43.77951" lon="7.30505">
        <ele>750.2</ele>
        <time>2011-04-30T08:25:10Z</time>
      </trkpt>
      <trkpt lat="43.77961" lon="7.30372">
        <ele>767.7</ele>
        <time>2011-04-30T08:25:10Z</time>
      </trkpt>
      <trkpt lat="43.77969" lon="7.30368">
        <ele>769.6</ele>
        <time>2011-04-30T08:25:10Z</time>
      </trkpt>
      <trkpt lat="43.77971" lon="7.30433">
        <ele>768.5</ele>
        <time>2011-04-30T08:25:10Z</time>
      </trkpt>
      <trkpt lat="43.77999" lon="7.30477">
        <ele>762.2</ele>
        <time>2011-04-30T08:25:10Z</time>
      </trkpt>
      <trkpt lat="43.78093" lon="7.30484">
        <ele>767.3</ele>
        <time>2011-04-30T08:25:10Z</time>
      </trkpt>
      <trkpt lat="43.78165" lon="7.3048">
        <ele>771.2</ele>
        <time>2011-04-30T08:25:10Z</time>
      </trkpt>
      <trkpt lat="43.78264" lon="7.30469">
        <ele>778</ele>
        <time>2011-04-30T08:25:10Z</time>
      </trkpt>
      <trkpt lat="43.7832" lon="7.30448">
        <ele>773.4</ele>
        <time>2011-04-30T08:25:10Z</time>
      </trkpt>
      <trkpt lat="43.78376" lon="7.30433">
        <ele>757.8</ele>
        <time>2011-04-30T08:25:10Z</time>
      </trkpt>
      <trkpt lat="43.78449" lon="7.30457">
        <ele>742.2</ele>
        <time>2011-04-30T08:25:10Z</time>
      </trkpt>
      <trkpt lat="43.78504" lon="7.30528">
        <ele>734.7</ele>
        <time>2011-04-30T08:25:10Z</time>
      </trkpt>
      <trkpt lat="43.78519" lon="7.30639">
        <ele>754.1</ele>
        <time>2011-04-30T08:25:10Z</time>
      </trkpt>
      <trkpt lat="43.78595" lon="7.3064">
        <ele>746.1</ele>
        <time>2011-04-30T08:25:10Z</time>
      </trkpt>
      <trkpt lat="43.78695" lon="7.30631">
        <ele>746.8</ele>
        <time>2011-04-30T08:25:10Z</time>
      </trkpt>
      <trkpt lat="43.78783" lon="7.30583">
        <ele>749.7</ele>
        <time>2011-04-30T08:25:10Z</time>
      </trkpt>
      <trkpt lat="43.78886" lon="7.30464">
        <ele>738.6</ele>
        <time>2011-04-30T08:25:10Z</time>
      </trkpt>
      <trkpt lat="43.7897" lon="7.30392">
        <ele>720.7</ele>
        <time>2011-04-30T08:25:10Z</time>
      </trkpt>
      <trkpt lat="43.78999" lon="7.30397">
        <ele>717.2</ele>
        <time>2011-04-30T08:25:10Z</time>
      </trkpt>
      <trkpt lat="43.79033" lon="7.30424">
        <ele>710.1</ele>
        <time>2011-04-30T08:25:10Z</time>
      </trkpt>
      <trkpt lat="43.791" lon="7.30389">
        <ele>700</ele>
        <time>2011-04-30T08:25:10Z</time>
      </trkpt>
      <trkpt lat="43.79164" lon="7.30314">
        <ele>704</ele>
        <time>2011-04-30T08:25:10Z</time>
      </trkpt>
      <trkpt lat="43.79243" lon="7.30254">
        <ele>704.8</ele>
        <time>2011-04-30T08:25:10Z</time>
      </trkpt>
      <trkpt lat="43.79299" lon="7.30218">
        <ele>707.2</ele>
        <time>2011-04-30T08:25:10Z</time>
      </trkpt>
      <trkpt lat="43.79325" lon="7.30212">
        <ele>708.7</ele>
        <time>2011-04-30T08:25:10Z</time>
      </trkpt>
      <trkpt lat="43.79357" lon="7.30174">
        <ele>710.7</ele>
        <time>2011-04-30T08:25:10Z</time>
      </trkpt>
      <trkpt lat="43.7938" lon="7.3011">
        <ele>711.2</ele>
        <time>2011-04-30T08:25:10Z</time>
      </trkpt>
      <trkpt lat="43.79356" lon="7.30061">
        <ele>717.4</ele>
        <time>2011-04-30T08:25:10Z</time>
      </trkpt>
      <trkpt lat="43.79332" lon="7.30033">
        <ele>720.9</ele>
        <time>2011-04-30T08:25:10Z</time>
      </trkpt>
      <trkpt lat="43.79355" lon="7.29943">
        <ele>715.8</ele>
        <time>2011-04-30T08:25:10Z</time>
      </trkpt>
      <trkpt lat="43.79389" lon="7.29856">
        <ele>709.5</ele>
        <time>2011-04-30T08:25:10Z</time>
      </trkpt>
      <trkpt lat="43.7943" lon="7.298">
        <ele>704.8</ele>
        <time>2011-04-30T08:25:10Z</time>
      </trkpt>
      <trkpt lat="43.79395" lon="7.29738">
        <ele>706.5</ele>
        <time>2011-04-30T08:25:10Z</time>
      </trkpt>
      <trkpt lat="43.79349" lon="7.29729">
        <ele>703</ele>
        <time>2011-04-30T08:25:10Z</time>
      </trkpt>
      <trkpt lat="43.79303" lon="7.2972">
        <ele>696.2</ele>
        <time>2011-04-30T08:25:10Z</time>
      </trkpt>
      <trkpt lat="43.79275" lon="7.2974">
        <ele>692.8</ele>
        <time>2011-04-30T08:25:10Z</time>
      </trkpt>
      <trkpt lat="43.79275" lon="7.29758">
        <ele>693.9</ele>
        <time>2011-04-30T08:25:10Z</time>
      </trkpt>
      <trkpt lat="43.79291" lon="7.2977">
        <ele>697.6</ele>
        <time>2011-04-30T08:25:10Z</time>
      </trkpt>
      <trkpt lat="43.79284" lon="7.29872">
        <ele>703.7</ele>
        <time>2011-04-30T08:25:10Z</time>
      </trkpt>
      <trkpt lat="43.79249" lon="7.29906">
        <ele>700.6</ele>
        <time>2011-04-30T08:25:10Z</time>
      </trkpt>
      <trkpt lat="43.7922" lon="7.29961">
        <ele>695</ele>
        <time>2011-04-30T08:25:10Z</time>
      </trkpt>
      <trkpt lat="43.79202" lon="7.30038">
        <ele>693.1</ele>
        <time>2011-04-30T08:25:10Z</time>
      </trkpt>
      <trkpt lat="43.79144" lon="7.30029">
        <ele>673.7</ele>
        <time>2011-04-30T08:25:10Z</time>
      </trkpt>
      <trkpt lat="43.79115" lon="7.30049">
        <ele>669.3</ele>
        <time>2011-04-30T08:25:10Z</time>
      </trkpt>
      <trkpt lat="43.7909" lon="7.30101">
        <ele>677.2</ele>
        <time>2011-04-30T08:25:10Z</time>
      </trkpt>
      <trkpt lat="43.79066" lon="7.30151">
        <ele>682.6</ele>
        <time>2011-04-30T08:25:10Z</time>
      </trkpt>
      <trkpt lat="43.79019" lon="7.30119">
        <ele>659.5</ele>
        <time>2011-04-30T08:25:10Z</time>
      </trkpt>
      <trkpt lat="43.78967" lon="7.30119">
        <ele>652.4</ele>
        <time>2011-04-30T08:25:10Z</time>
      </trkpt>
      <trkpt lat="43.78925" lon="7.30136">
        <ele>656.1</ele>
        <time>2011-04-30T08:25:10Z</time>
      </trkpt>
      <trkpt lat="43.78895" lon="7.30187">
        <ele>670.8</ele>
        <time>2011-04-30T08:25:10Z</time>
      </trkpt>
      <trkpt lat="43.78874" lon="7.30174">
        <ele>663.6</ele>
        <time>2011-04-30T08:25:10Z</time>
      </trkpt>
      <trkpt lat="43.78833" lon="7.3018">
        <ele>661.1</ele>
        <time>2011-04-30T08:25:10Z</time>
      </trkpt>
      <trkpt lat="43.78782" lon="7.30261">
        <ele>670.6</ele>
        <time>2011-04-30T08:25:10Z</time>
      </trkpt>
      <trkpt lat="43.78731" lon="7.30321">
        <ele>667.4</ele>
        <time>2011-04-30T08:25:10Z</time>
      </trkpt>
      <trkpt lat="43.78711" lon="7.30296">
        <ele>653.8</ele>
        <time>2011-04-30T08:25:10Z</time>
      </trkpt>
      <trkpt lat="43.78685" lon="7.30321">
        <ele>649.4</ele>
        <time>2011-04-30T08:25:10Z</time>
      </trkpt>
      <trkpt lat="43.78669" lon="7.303">
        <ele>638.5</ele>
        <time>2011-04-30T08:25:10Z</time>
      </trkpt>
      <trkpt lat="43.78612" lon="7.30256">
        <ele>630.3</ele>
        <time>2011-04-30T08:25:10Z</time>
      </trkpt>
      <trkpt lat="43.7856" lon="7.30263">
        <ele>640.4</ele>
        <time>2011-04-30T08:25:10Z</time>
      </trkpt>
      <trkpt lat="43.78543" lon="7.3025">
        <ele>640.9</ele>
        <time>2011-04-30T08:25:10Z</time>
      </trkpt>
      <trkpt lat="43.78526" lon="7.30218">
        <ele>635.5</ele>
        <time>2011-04-30T08:25:10Z</time>
      </trkpt>
      <trkpt lat="43.78474" lon="7.30214">
        <ele>646.9</ele>
        <time>2011-04-30T08:25:10Z</time>
      </trkpt>
      <trkpt lat="43.78429" lon="7.302">
        <ele>651.1</ele>
        <time>2011-04-30T08:25:10Z</time>
      </trkpt>
      <trkpt lat="43.7836" lon="7.30232">
        <ele>674.3</ele>
        <time>2011-04-30T08:25:10Z</time>
      </trkpt>
      <trkpt lat="43.78327" lon="7.3021">
        <ele>667.7</ele>
        <time>2011-04-30T08:25:10Z</time>
      </trkpt>
      <trkpt lat="43.78234" lon="7.30196">
        <ele>668.5</ele>
        <time>2011-04-30T08:25:10Z</time>
      </trkpt>
      <trkpt lat="43.78211" lon="7.30172">
        <ele>660.9</ele>
        <time>2011-04-30T08:25:10Z</time>
      </trkpt>
      <trkpt lat="43.782" lon="7.30125">
        <ele>643.3</ele>
        <time>2011-04-30T08:25:10Z</time>
      </trkpt>
      <trkpt lat="43.78144" lon="7.30066">
        <ele>634.7</ele>
        <time>2011-04-30T08:25:10Z</time>
      </trkpt>
      <trkpt lat="43.7809" lon="7.30016">
        <ele>635.4</ele>
        <time>2011-04-30T08:25:10Z</time>
      </trkpt>
      <trkpt lat="43.78036" lon="7.29966">
        <ele>634.5</ele>
        <time>2011-04-30T08:25:10Z</time>
      </trkpt>
      <trkpt lat="43.78004" lon="7.2991">
        <ele>626</ele>
        <time>2011-04-30T08:25:10Z</time>
      </trkpt>
      <trkpt lat="43.77959" lon="7.2986">
        <ele>636.1</ele>
        <time>2011-04-30T08:25:10Z</time>
      </trkpt>
      <trkpt lat="43.77932" lon="7.29834">
        <ele>646</ele>
        <time>2011-04-30T08:25:10Z</time>
      </trkpt>
      <trkpt lat="43.77919" lon="7.2983">
        <ele>653.7</ele>
        <time>2011-04-30T08:25:10Z</time>
      </trkpt>
      <trkpt lat="43.77885" lon="7.29782">
        <ele>656.4</ele>
        <time>2011-04-30T08:25:10Z</time>
      </trkpt>
      <trkpt lat="43.77848" lon="7.29778">
        <ele>661.2</ele>
        <time>2011-04-30T08:25:10Z</time>
      </trkpt>
      <trkpt lat="43.77823" lon="7.29753">
        <ele>661.2</ele>
        <time>2011-04-30T08:25:10Z</time>
      </trkpt>
      <trkpt lat="43.77817" lon="7.29729">
        <ele>659.3</ele>
        <time>2011-04-30T08:25:10Z</time>
      </trkpt>
      <trkpt lat="43.7779" lon="7.29766">
        <ele>651.6</ele>
        <time>2011-04-30T08:25:10Z</time>
      </trkpt>
      <trkpt lat="43.77783" lon="7.29799">
        <ele>646.2</ele>
        <time>2011-04-30T08:25:10Z</time>
      </trkpt>
      <trkpt lat="43.77789" lon="7.29815">
        <ele>646.2</ele>
        <time>2011-04-30T08:25:10Z</time>
      </trkpt>
      <trkpt lat="43.77773" lon="7.29807">
        <ele>641.9</ele>
        <time>2011-04-30T08:25:10Z</time>
      </trkpt>
      <trkpt lat="43.77761" lon="7.29783">
        <ele>641.1</ele>
        <time>2011-04-30T08:25:10Z</time>
      </trkpt>
      <trkpt lat="43.77755" lon="7.29727">
        <ele>644.1</ele>
        <time>2011-04-30T08:25:10Z</time>
      </trkpt>
      <trkpt lat="43.77734" lon="7.29799">
        <ele>627.7</ele>
        <time>2011-04-30T08:25:10Z</time>
      </trkpt>
      <trkpt lat="43.77724" lon="7.29812">
        <ele>621.3</ele>
        <time>2011-04-30T08:25:10Z</time>
      </trkpt>
      <trkpt lat="43.7773" lon="7.29872">
        <ele>623.3</ele>
        <time>2011-04-30T08:25:10Z</time>
      </trkpt>
      <trkpt lat="43.77718" lon="7.29892">
        <ele>618.9</ele>
        <time>2011-04-30T08:25:10Z</time>
      </trkpt>
      <trkpt lat="43.77674" lon="7.2988">
        <ele>598.6</ele>
        <time>2011-04-30T08:25:10Z</time>
      </trkpt>
      <trkpt lat="43.77625" lon="7.29852">
        <ele>581.6</ele>
        <time>2011-04-30T08:25:10Z</time>
      </trkpt>
      <trkpt lat="43.77572" lon="7.29828">
        <ele>560.9</ele>
        <time>2011-04-30T08:25:10Z</time>
      </trkpt>
      <trkpt lat="43.77521" lon="7.29818">
        <ele>557.6</ele>
        <time>2011-04-30T08:25:10Z</time>
      </trkpt>
      <trkpt lat="43.77505" lon="7.29822">
        <ele>559.2</ele>
        <time>2011-04-30T08:25:10Z</time>
      </trkpt>
      <trkpt lat="43.77472" lon="7.29856">
        <ele>568.2</ele>
        <time>2011-04-30T08:25:10Z</time>
      </trkpt>
      <trkpt lat="43.77446" lon="7.2989">
        <ele>574.7</ele>
        <time>2011-04-30T08:25:10Z</time>
      </trkpt>
      <trkpt lat="43.77415" lon="7.29901">
        <ele>571</ele>
        <time>2011-04-30T08:25:10Z</time>
      </trkpt>
      <trkpt lat="43.77381" lon="7.29939">
        <ele>564.5</ele>
        <time>2011-04-30T08:25:10Z</time>
      </trkpt>
      <trkpt lat="43.77348" lon="7.29975">
        <ele>556</ele>
        <time>2011-04-30T08:25:10Z</time>
      </trkpt>
      <trkpt lat="43.77316" lon="7.30022">
        <ele>548.5</ele>
        <time>2011-04-30T08:25:10Z</time>
      </trkpt>
      <trkpt lat="43.77286" lon="7.30051">
        <ele>538.2</ele>
        <time>2011-04-30T08:25:10Z</time>
      </trkpt>
      <trkpt lat="43.7726" lon="7.30056">
        <ele>525.2</ele>
        <time>2011-04-30T08:25:10Z</time>
      </trkpt>
      <trkpt lat="43.77219" lon="7.30027">
        <ele>505.7</ele>
        <time>2011-04-30T08:25:10Z</time>
      </trkpt>
      <trkpt lat="43.77169" lon="7.29994">
        <ele>486</ele>
        <time>2011-04-30T08:25:10Z</time>
      </trkpt>
      <trkpt lat="43.77175" lon="7.29948">
        <ele>481.5</ele>
        <time>2011-04-30T08:25:10Z</time>
      </trkpt>
      <trkpt lat="43.77182" lon="7.29903">
        <ele>477.1</ele>
        <time>2011-04-30T08:25:10Z</time>
      </trkpt>
      <trkpt lat="43.77203" lon="7.29857">
        <ele>474.9</ele>
        <time>2011-04-30T08:25:10Z</time>
      </trkpt>
      <trkpt lat="43.77209" lon="7.29801">
        <ele>467.2</ele>
        <time>2011-04-30T08:25:10Z</time>
      </trkpt>
      <trkpt lat="43.77197" lon="7.29725">
        <ele>455.8</ele>
        <time>2011-04-30T08:25:10Z</time>
      </trkpt>
      <trkpt lat="43.7719" lon="7.29668">
        <ele>449.8</ele>
        <time>2011-04-30T08:25:10Z</time>
      </trkpt>
      <trkpt lat="43.77232" lon="7.29644">
        <ele>441.9</ele>
        <time>2011-04-30T08:25:10Z</time>
      </trkpt>
      <trkpt lat="43.77273" lon="7.29615">
        <ele>439</ele>
        <time>2011-04-30T08:25:10Z</time>
      </trkpt>
      <trkpt lat="43.77299" lon="7.29579">
        <ele>436</ele>
        <time>2011-04-30T08:25:10Z</time>
      </trkpt>
      <trkpt lat="43.77318" lon="7.29532">
        <ele>426.5</ele>
        <time>2011-04-30T08:25:10Z</time>
      </trkpt>
      <trkpt lat="43.77338" lon="7.29432">
        <ele>405.3</ele>
        <time>2011-04-30T08:25:10Z</time>
      </trkpt>
      <trkpt lat="43.77368" lon="7.29387">
        <ele>408</ele>
        <time>2011-04-30T08:25:10Z</time>
      </trkpt>
      <trkpt lat="43.77391" lon="7.29372">
        <ele>413.9</ele>
        <time>2011-04-30T08:25:10Z</time>
      </trkpt>
      <trkpt lat="43.77406" lon="7.29319">
        <ele>416.4</ele>
        <time>2011-04-30T08:25:10Z</time>
      </trkpt>
      <trkpt lat="43.77393" lon="7.2924">
        <ele>405.9</ele>
        <time>2011-04-30T08:25:10Z</time>
      </trkpt>
      <trkpt lat="43.77391" lon="7.29157">
        <ele>399</ele>
        <time>2011-04-30T08:25:10Z</time>
      </trkpt>
      <trkpt lat="43.77413" lon="7.29151">
        <ele>409</ele>
        <time>2011-04-30T08:25:10Z</time>
      </trkpt>
      <trkpt lat="43.77389" lon="7.29108">
        <ele>401.1</ele>
        <time>2011-04-30T08:25:10Z</time>
      </trkpt>
      <trkpt lat="43.77391" lon="7.29059">
        <ele>406.1</ele>
        <time>2011-04-30T08:25:10Z</time>
      </trkpt>
      <trkpt lat="43.77373" lon="7.29028">
        <ele>399.5</ele>
        <time>2011-04-30T08:25:10Z</time>
      </trkpt>
      <trkpt lat="43.77357" lon="7.29013">
        <ele>392.1</ele>
        <time>2011-04-30T08:25:10Z</time>
      </trkpt>
      <trkpt lat="43.77347" lon="7.28971">
        <ele>389.3</ele>
        <time>2011-04-30T08:25:10Z</time>
      </trkpt>
      <trkpt lat="43.77348" lon="7.28882">
        <ele>381.6</ele>
        <time>2011-04-30T08:25:10Z</time>
      </trkpt>
      <trkpt lat="43.77417" lon="7.28805">
        <ele>371.3</ele>
        <time>2011-04-30T08:25:10Z</time>
      </trkpt>
      <trkpt lat="43.77455" lon="7.28758">
        <ele>349.6</ele>
        <time>2011-04-30T08:25:10Z</time>
      </trkpt>
      <trkpt lat="43.77526" lon="7.28709">
        <ele>328.3</ele>
        <time>2011-04-30T08:25:10Z</time>
      </trkpt>
      <trkpt lat="43.77632" lon="7.2867">
        <ele>311.5</ele>
        <time>2011-04-30T08:25:10Z</time>
      </trkpt>
      <trkpt lat="43.77691" lon="7.28648">
        <ele>310.8</ele>
        <time>2011-04-30T08:25:10Z</time>
      </trkpt>
      <trkpt lat="43.77693" lon="7.28622">
        <ele>302.4</ele>
        <time>2011-04-30T08:25:10Z</time>
      </trkpt>
      <trkpt lat="43.77735" lon="7.28607">
        <ele>309.2</ele>
        <time>2011-04-30T08:25:10Z</time>
      </trkpt>
      <trkpt lat="43.7775" lon="7.28644">
        <ele>327.4</ele>
        <time>2011-04-30T08:25:10Z</time>
      </trkpt>
      <trkpt lat="43.77785" lon="7.28585">
        <ele>311.3</ele>
        <time>2011-04-30T08:25:10Z</time>
      </trkpt>
      <trkpt lat="43.77819" lon="7.28526">
        <ele>292</ele>
        <time>2011-04-30T08:25:10Z</time>
      </trkpt>
      <trkpt lat="43.77854" lon="7.2847">
        <ele>279.2</ele>
        <time>2011-04-30T08:25:10Z</time>
      </trkpt>
      <trkpt lat="43.7788" lon="7.28425">
        <ele>272.3</ele>
        <time>2011-04-30T08:25:10Z</time>
      </trkpt>
      <trkpt lat="43.77796" lon="7.28343">
        <ele>259.2</ele>
        <time>2011-04-30T08:25:10Z</time>
      </trkpt>
      <trkpt lat="43.77784" lon="7.28342">
        <ele>258.3</ele>
        <time>2011-04-30T08:25:10Z</time>
      </trkpt>
      <trkpt lat="43.77767" lon="7.28382">
        <ele>257.9</ele>
        <time>2011-04-30T08:25:10Z</time>
      </trkpt>
      <trkpt lat="43.77711" lon="7.28422">
        <ele>256.7</ele>
        <time>2011-04-30T08:25:10Z</time>
      </trkpt>
      <trkpt lat="43.77648" lon="7.28458">
        <ele>258.3</ele>
        <time>2011-04-30T08:25:10Z</time>
      </trkpt>
      <trkpt lat="43.77577" lon="7.28487">
        <ele>254.2</ele>
        <time>2011-04-30T08:25:10Z</time>
      </trkpt>
      <trkpt lat="43.77505" lon="7.28511">
        <ele>256.5</ele>
        <time>2011-04-30T08:25:10Z</time>
      </trkpt>
      <trkpt lat="43.77459" lon="7.2853">
        <ele>257.2</ele>
        <time>2011-04-30T08:25:10Z</time>
      </trkpt>
      <trkpt lat="43.77421" lon="7.28516">
        <ele>254.9</ele>
        <time>2011-04-30T08:25:10Z</time>
      </trkpt>
      <trkpt lat="43.77406" lon="7.28453">
        <ele>264.2</ele>
        <time>2011-04-30T08:25:10Z</time>
      </trkpt>
      <trkpt lat="43.77392" lon="7.28379">
        <ele>272.4</ele>
        <time>2011-04-30T08:25:10Z</time>
      </trkpt>
      <trkpt lat="43.77414" lon="7.28272">
        <ele>284.9</ele>
        <time>2011-04-30T08:25:10Z</time>
      </trkpt>
      <trkpt lat="43.77456" lon="7.28204">
        <ele>310.4</ele>
        <time>2011-04-30T08:25:10Z</time>
      </trkpt>
      <trkpt lat="43.77455" lon="7.28164">
        <ele>310.8</ele>
        <time>2011-04-30T08:25:10Z</time>
      </trkpt>
      <trkpt lat="43.77433" lon="7.28103">
        <ele>295.8</ele>
        <time>2011-04-30T08:25:10Z</time>
      </trkpt>
      <trkpt lat="43.77404" lon="7.2805">
        <ele>280.2</ele>
        <time>2011-04-30T08:25:10Z</time>
      </trkpt>
    </trkseg>
  </trk>
</gpx>